Location: Helion Bumpstead
(52.0500°N, 0.4000°E)
Time: 20:29:00
(UTC+00:00)

ARGOS - Pass Details

Date: 15 November 2025
Orbit: 819 x 832 km, 98.5° (Epoch: 14 December)

Event Time Altitude Azimuth Distance (km) Brightness Sun altitude
Rises 03:32:43 0° 18° (NNE) 3,392 6.7 -34.4°
Reaches altitude 10° 03:35:11 10° 24° (NNE) 2,454 6.0 -34.0°
Enters shadow 03:40:24 48° 97° (E) 1,089 4.0 -33.2°
